When you browse on this site, cookies collect data to enhance your experience and personalize the content and advertising you see.
Visit our Privacy Policy to learn more. By continuing to use the site, you agree to this use of cookies and data.
  • en France
  • Liste des pays
  • À 7 jours
  • Température de l'eau
  • Carte météo
  • Widgets météo
  • user-avatar
    Se connecter

    Météo par heure à Hasselt

    Ce jour, 19 Septembre, Jeudi

    Heure Température Précipitation Vent Pression Humidité
    00:00 +9°C° 0 mm 2 m/s 768 mmHg 92%
    01:00 +9°C° 0 mm 1 m/s 768 mmHg 93%
    02:00 +9°C° 0 mm 1 m/s 768 mmHg 93%
    03:00 +8°C° 0 mm 1 m/s 768 mmHg 93%
    04:00 +8°C° 0 mm 1 m/s 768 mmHg 93%
    05:00 +8°C° 0 mm 1 m/s 768 mmHg 92%
    06:00 +9°C° 0 mm 1 m/s 769 mmHg 92%
    07:00 +11°C° 0 mm 1 m/s 769 mmHg 81%
    08:00 +13°C° 0 mm 2 m/s 769 mmHg 71%
    09:00 +15°C° 0 mm 2 m/s 769 mmHg 60%
    10:00 +16°C° 0 mm 2 m/s 769 mmHg 57%
    11:00 +16°C° 0 mm 3 m/s 769 mmHg 53%
    12:00 +17°C° 0 mm 3 m/s 769 mmHg 49%
    13:00 +17°C° 0 mm 3 m/s 769 mmHg 49%
    14:00 +17°C° 0 mm 3 m/s 768 mmHg 48%
    15:00 +17°C° 0 mm 3 m/s 768 mmHg 48%
    16:00 +16°C° 0 mm 3 m/s 768 mmHg 54%
    17:00 +13°C° 0 mm 3 m/s 768 mmHg 60%
    18:00 +12°C° 0 mm 2 m/s 768 mmHg 67%
    19:00 +12°C° 0 mm 2 m/s 768 mmHg 68%
    20:00 +10°C° 0 mm 2 m/s 769 mmHg 70%
    21:00 +9°C° 0 mm 2 m/s 769 mmHg 72%
    22:00 +9°C° 0 mm 2 m/s 769 mmHg 72%
    23:00 +8°C° 0 mm 2 m/s 769 mmHg 73%

    Demain, 20 Septembre, Vendredi

    Heure Température Précipitation Vent Pression Humidité
    00:00 +8°C° 0 mm 2 m/s 769 mmHg 74%
    01:00 +8°C° 0 mm 2 m/s 768 mmHg 75%
    02:00 +7°C° 0 mm 2 m/s 768 mmHg 76%
    03:00 +8°C° 0 mm 1 m/s 768 mmHg 77%
    04:00 +8°C° 0 mm 1 m/s 768 mmHg 77%
    05:00 +7°C° 0 mm 2 m/s 768 mmHg 76%
    06:00 +7°C° 0 mm 2 m/s 768 mmHg 76%
    07:00 +9°C° 0 mm 2 m/s 768 mmHg 67%
    08:00 +12°C° 0 mm 3 m/s 768 mmHg 58%
    09:00 +14°C° 0 mm 3 m/s 768 mmHg 49%
    10:00 +17°C° 0 mm 4 m/s 767 mmHg 46%
    11:00 +18°C° 0 mm 4 m/s 766 mmHg 42%
    12:00 +19°C° 0 mm 5 m/s 766 mmHg 39%
    13:00 +19°C° 0 mm 5 m/s 765 mmHg 40%
    14:00 +19°C° 0 mm 5 m/s 765 mmHg 40%
    15:00 +20°C° 0 mm 5 m/s 764 mmHg 41%
    16:00 +18°C° 0 mm 4 m/s 764 mmHg 47%
    17:00 +15°C° 0 mm 4 m/s 763 mmHg 53%
    18:00 +14°C° 0 mm 3 m/s 763 mmHg 58%
    19:00 +13°C° 0 mm 3 m/s 763 mmHg 60%
    20:00 +12°C° 0 mm 3 m/s 763 mmHg 62%
    21:00 +12°C° 0 mm 3 m/s 763 mmHg 63%
    22:00 +11°C° 0 mm 3 m/s 763 mmHg 63%
    23:00 +11°C° 0 mm 3 m/s 762 mmHg 63%

    Après-demain, 21 Septembre, Samedi

    Heure Température Précipitation Vent Pression Humidité
    00:00 +11°C° 0 mm 3 m/s 762 mmHg 63%
    01:00 +10°C° 0 mm 3 m/s 762 mmHg 63%
    02:00 +10°C° 0 mm 3 m/s 761 mmHg 63%
    03:00 +10°C° 0 mm 3 m/s 761 mmHg 62%
    04:00 +10°C° 0 mm 3 m/s 760 mmHg 62%
    05:00 +9°C° 0 mm 3 m/s 760 mmHg 62%
    06:00 +8°C° 0 mm 4 m/s 760 mmHg 62%
    07:00 +12°C° 0 mm 4 m/s 760 mmHg 55%
    08:00 +15°C° 0 mm 4 m/s 759 mmHg 48%
    09:00 +18°C° 0 mm 4 m/s 759 mmHg 42%
    10:00 +20°C° 0 mm 4 m/s 759 mmHg 41%
    11:00 +22°C° 0 mm 4 m/s 758 mmHg 40%
    12:00 +25°C° 0 mm 4 m/s 758 mmHg 39%
    13:00 +26°C° 0 mm 4 m/s 757 mmHg 40%
    14:00 +26°C° 0 mm 4 m/s 757 mmHg 42%
    15:00 +26°C° 0 mm 4 m/s 756 mmHg 43%
    16:00 +23°C° 0 mm 4 m/s 756 mmHg 49%
    17:00 +21°C° 0 mm 4 m/s 756 mmHg 55%
    18:00 +19°C° 0 mm 3 m/s 756 mmHg 61%
    19:00 +19°C° 0 mm 3 m/s 756 mmHg 59%
    20:00 +18°C° 0 mm 3 m/s 756 mmHg 57%
    21:00 +17°C° 0 mm 4 m/s 756 mmHg 56%
    22:00 +17°C° 0 mm 3 m/s 755 mmHg 55%
    23:00 +17°C° 0 mm 3 m/s 755 mmHg 54%

    22 Septembre, Dimanche

    Heure Température Précipitation Vent Pression Humidité
    00:00 +17°C° 0 mm 3 m/s 755 mmHg 53%
    01:00 +17°C° 0 mm 3 m/s 755 mmHg 54%
    02:00 +17°C° 0 mm 3 m/s 754 mmHg 55%
    03:00 +17°C° 0 mm 3 m/s 754 mmHg 55%
    04:00 +17°C° 0 mm 3 m/s 754 mmHg 58%
    05:00 +17°C° 0 mm 3 m/s 754 mmHg 60%
    06:00 +17°C° 0 mm 3 m/s 754 mmHg 62%
    07:00 +19°C° 0 mm 3 m/s 753 mmHg 60%
    08:00 +21°C° 0 mm 3 m/s 753 mmHg 57%
    09:00 +22°C° 0 mm 3 m/s 753 mmHg 54%
    10:00 +24°C° 0 mm 3 m/s 753 mmHg 55%
    11:00 +24°C° 0 mm 3 m/s 753 mmHg 56%
    12:00 +25°C° 0 mm 3 m/s 752 mmHg 57%
    13:00 +24°C° 0 mm 3 m/s 752 mmHg 60%
    14:00 +24°C° 0 mm 2 m/s 751 mmHg 63%
    15:00 +24°C° 0 mm 2 m/s 751 mmHg 66%
    16:00 +23°C° 0.5 mm 2 m/s 751 mmHg 70%
    17:00 +21°C° 0.5 mm 2 m/s 751 mmHg 75%
    18:00 +20°C° 0.5 mm 2 m/s 751 mmHg 80%
    19:00 +19°C° 0.5 mm 3 m/s 751 mmHg 84%
    20:00 +19°C° 0.5 mm 4 m/s 752 mmHg 88%
    21:00 +17°C° 0.5 mm 5 m/s 752 mmHg 92%
    22:00 +17°C° 0.3 mm 5 m/s 752 mmHg 92%
    23:00 +16°C° 0.3 mm 6 m/s 753 mmHg 91%

    23 Septembre, Lundi

    Heure Température Précipitation Vent Pression Humidité
    00:00 +15°C° 0.3 mm 6 m/s 753 mmHg 91%
    01:00 +15°C° 1.3 mm 5 m/s 753 mmHg 92%
    02:00 +14°C° 1.3 mm 4 m/s 754 mmHg 93%
    03:00 +14°C° 1.3 mm 3 m/s 754 mmHg 94%
    04:00 +14°C° 0.1 mm 4 m/s 754 mmHg 93%
    05:00 +14°C° 0.1 mm 4 m/s 754 mmHg 93%
    06:00 +14°C° 0.1 mm 4 m/s 755 mmHg 92%
    07:00 +15°C° 0 mm 4 m/s 755 mmHg 88%
    08:00 +15°C° 0 mm 5 m/s 755 mmHg 84%
    09:00 +16°C° 0 mm 5 m/s 756 mmHg 80%
    10:00 +17°C° 0 mm 5 m/s 756 mmHg 75%
    11:00 +19°C° 0 mm 5 m/s 756 mmHg 69%
    12:00 +20°C° 0 mm 5 m/s 756 mmHg 63%
    13:00 +20°C° 0.2 mm 5 m/s 756 mmHg 63%
    14:00 +20°C° 0.2 mm 5 m/s 756 mmHg 63%
    15:00 +20°C° 0.2 mm 5 m/s 756 mmHg 63%
    16:00 +18°C° 0 mm 4 m/s 756 mmHg 66%
    17:00 +17°C° 0 mm 3 m/s 756 mmHg 69%
    18:00 +14°C° 0 mm 3 m/s 757 mmHg 71%
    19:00 +14°C° 0 mm 3 m/s 757 mmHg 74%
    20:00 +14°C° 0 mm 2 m/s 757 mmHg 77%
    21:00 +13°C° 0 mm 2 m/s 758 mmHg 80%
    22:00 +13°C° 0 mm 2 m/s 758 mmHg 81%
    23:00 +12°C° 0 mm 3 m/s 758 mmHg 82%

    24 Septembre, Mardi

    Heure Température Précipitation Vent Pression Humidité
    00:00 +12°C° 0 mm 3 m/s 758 mmHg 83%
    01:00 +12°C° 0 mm 3 m/s 757 mmHg 80%
    02:00 +12°C° 0 mm 3 m/s 757 mmHg 78%
    03:00 +12°C° 0 mm 3 m/s 757 mmHg 75%
    04:00 +13°C° 0 mm 3 m/s 757 mmHg 73%
    05:00 +14°C° 0 mm 4 m/s 757 mmHg 71%
    06:00 +14°C° 0 mm 4 m/s 756 mmHg 69%
    07:00 +14°C° 0.2 mm 4 m/s 756 mmHg 74%
    08:00 +14°C° 0.2 mm 4 m/s 756 mmHg 78%
    09:00 +14°C° 0.2 mm 4 m/s 756 mmHg 83%
    10:00 +15°C° 0.1 mm 4 m/s 756 mmHg 82%
    11:00 +17°C° 0.1 mm 4 m/s 756 mmHg 80%
    12:00 +17°C° 0.1 mm 4 m/s 756 mmHg 79%
    13:00 +16°C° 0.4 mm 5 m/s 755 mmHg 82%
    14:00 +15°C° 0.4 mm 5 m/s 755 mmHg 85%
    15:00 +15°C° 0.4 mm 5 m/s 755 mmHg 89%
    16:00 +14°C° 0.3 mm 5 m/s 755 mmHg 89%
    17:00 +14°C° 0.3 mm 5 m/s 754 mmHg 89%
    18:00 +14°C° 0.3 mm 5 m/s 754 mmHg 89%
    19:00 +14°C° 0 mm 5 m/s 754 mmHg 88%
    20:00 +14°C° 0 mm 5 m/s 754 mmHg 86%
    21:00 +15°C° 0 mm 5 m/s 753 mmHg 85%
    22:00 +15°C° 0 mm 5 m/s 753 mmHg 84%
    23:00 +15°C° 0 mm 5 m/s 753 mmHg 82%
    Voir plus